CHINASAT 16 (SJ-13) (42662 NORAD) Tracking and Keplerian Element Data

This shows tracking and keplerian element data for the satellite.

Feedback or suggestion? Click here.




ElementValue
Catalog42662
NameCHINASAT 16 (SJ-13)
Epoch Orbit1637
Epoch Day261.96194999
Epoch Year2021
RAAN84.9656
Inclination0.0626
Eccentricity0.0006372
Argument of Perigee137.5111
Mean Anonmoly232.4233
Mean Motion1.00270168
Decay Rate-3.76E-06
L11 42662U 17018A 21261.96194999 -.00000376 00000-0 00000-0 0 9992
L22 42662 0.0626 84.9656 0006372 137.5111 232.4233 1.00270168 16372

Live tracking and technical data element details for CHINASAT 16 (SJ-13) (NORAD 42662). CHINASAT 16 (SJ-13) can be tracked NOW for your location showing map with azimuth and elevation plus other details from your city location.

Track the satellite on the map from your city or location and see movement details for azimuth, elevation, latitude, longitude, range, height, and movement on the map or in text.







IsCatalogInMostPopularTable: catalog: 42662, numindb: 552
Update: records affected: 1



GetName: 42662 CHINASAT 16 (SJ-13)

Hit Count: updated at: Sun, 26 Sep 2021 00:46:41 GMT